2022-072E (52939 NORAD) Tracking and Keplerian Element Data

This shows tracking and keplerian element data for the satellite.

Feedback or suggestion? Click here.




ElementValue
Catalog52939
Name2022-072E
Epoch Orbit174
Epoch Day193.04815139
Epoch Year2022
RAAN351.6446
Inclination9.9532
Eccentricity0.003557
Argument of Perigee118.7817
Mean Anonmoly241.5975
Mean Motion15.03389326
Decay Rate3.18E-05
L11 52939U 22072E 22193.04815139 .00003180 00000+0 16949-3 0 9992
L22 52939 9.9532 351.6446 0035570 118.7817 241.5975 15.03389326 1745

Live tracking and technical data element details for 2022-072E (NORAD 52939). 2022-072E can be tracked NOW for your location showing map with azimuth and elevation plus other details from your city location.

Track the satellite on the map from your city or location and see movement details for azimuth, elevation, latitude, longitude, range, height, and movement on the map or in text.







IsCatalogInMostPopularTable: catalog: 52939, numindb: 8
Update: records affected: 1



GetName: 52939 2022-072E

Hit Count: updated at: Thu, 06 Oct 2022 04:45:09 GMT